Regional Weather Roundup
Issued by NWS Wakefield, VA

Home | Current Version | Previous Version | Graphics & Text | Print | Product List | Glossary On
Versions: 1 2 3 4 5 6 7 8 9 10 11 12 13 14 15 16 17 18 19 20 21 22 23 24 25 26 27 28 29 30 31 32 33 34 35 36 37 38 39 40 41 42 43 44 45 46 47 48 49 50
000
ASUS41 KAKQ 021715
RWRAKQ

REGIONAL WEATHER ROUNDUP
NATIONAL WEATHER SERVICE WAKEFIELD VA
100 PM EDT WED SEP 02 2015

Note: "fair" indicates few or no clouds below 12,000 feet with no
significant weather and/or obstructions to visibility. * = Denotes
station may not report precipitation (e.g., rain,snow,etc.),
thunder or fog.

VAZ042-051-052>054-056-021800-
NORTHERN VIRGINIA

CITY           SKY/WX    TMP DP  RH WIND       PRES   REMARKS
WASH NATIONAL  CLOUDY    90  66  45 N6        30.01F
DULLES         PTSUNNY   89  69  51 VRB3      30.02F
FORT BELVOIR   CLOUDY    88  67  48 VRB1      30.01F
QUANTICO       CLOUDY    87  69  54 E3        30.02F
FREDERICKSBRG* CLOUDY    91  71  51 N5        30.01F HX  97
STAFFORD*      CLOUDY    88  69  53 NW5       30.06F
WARRENTON      CLOUDY    86  72  62 N6        30.03F
CULPEPER*      PTSUNNY   86  71  59 N5        30.04F
MANASSAS*      SUNNY     88  70  55 N5        30.02F
LEESBURG*      PTSUNNY   90  72  55 CALM      30.03F HX  96
WINCHESTER     PTSUNNY   88  64  45 CALM      30.03F
FRONT ROYAL*   PTSUNNY   86  68  54 W3        30.03F
LURAY*         PTSUNNY   88  64  45 SE3       30.05F
$$

VAZ048-049-060>072-079>083-021800-
CENTRAL AND SOUTH CENTRAL VIRGINIA

CITY           SKY/WX    TMP DP  RH WIND       PRES   REMARKS
RICHMOND       CLOUDY    92  66  42 N6        30.01F
CHESTERFIELD*  FAIR      91  64  40 SW9       30.03F
PETERSBURG*    MOSUNNY   92  73  52 S6        30.02F HX 100
HANOVER        PTSUNNY   90  68  48 CALM      30.03F
TAPPAHANNOCK*  PTSUNNY   92  65  40 CALM      30.02F
QUINTON*       FAIR      91  72  53 SW3       30.01F HX  98
CHARLOTTSVILLE PTSUNNY   83  71  67 CALM      30.05F
GORDONSVILLE*  FAIR      85  70  60 CALM      30.04F
ORANGE*        PTSUNNY   86  70  58 N5        30.05F
LOUISA*        CLOUDY    90  70  51 NW5       30.03F HX  95
BUMPASS*       FAIR      85  70  61 N3        30.03F
FARMVILLE*     MOSUNNY   92  64  38 NE6       30.02F
CREWE*         FAIR     N/A N/A N/A CALM      30.03F
FORT PICKETT*  PTSUNNY   89  68  48 NW6       30.03F
CHASE CITY*    FAIR      92  70  48 NW3       30.04F HX  98
CLARKSVILLE*   FAIR      90  68  48 NW5       30.03F
SOUTH HILL*    MOSUNNY   90  72  55 SW5       30.09F HX  96
LAWRENCEVILLE* FAIR      90  72  55 SW5       30.03F HX  96
EMPORIA*       SUNNY     90  70  51 CALM      30.04F HX  95
$$

VAZ088>098-021800-
SOUTHEAST VIRGINIA

CITY           SKY/WX    TMP DP  RH WIND       PRES   REMARKS
NORFOLK        MOSUNNY   91  67  44 E7        30.01F
VIRGINIA BEACH PTSUNNY   93  73  52 E8        30.00F HX 102
NORFOLK NAVAL  MOSUNNY   91  67  44 W6        30.02F
WEST POINT*    PTSUNNY   94  65  38 W5        30.02F HX  96
SALUDA*        FAIR      89  73  60 N6        30.00F HX  96
NEWPORT NEWS   MOSUNNY   92  68  45 VRB7      30.01F HX  96
LANGLEY AFB    MOSUNNY   92  69  47 SW7       30.00F HX  96
FORT EUSTIS    MOSUNNY   91  69  47 N6        29.99F HX  95
WILLIAMSBURG*  MOSUNNY   99  70  39 NW8       30.02F HX 105
HR EXEC AP*      N/A     91  72  52 NW6       30.03F HX  98
FRANKLIN*      SUNNY     91  68  47 SW5       30.02F HX  95
WAKEFIELD      MOSUNNY   92  67  43 VRB3      30.01F HX  95
$$

VAZ020-022-025-037-045-021800-
WEST CENTRAL AND SOUTHWEST VIRGINIA

CITY           SKY/WX    TMP DP  RH WIND       PRES   REMARKS
STAUNTON*      MOSUNNY   85  65  51 W12       30.11F
WAYNESBORO*    FAIR      87  67  51 CALM      30.10F
HOT SPRINGS VA MOSUNNY   76  59  55 CALM      30.23F HAZE
LYNCHBURG      SUNNY     89  64  43 MISG      30.08F
DANVILLE       SUNNY     92  65  40 W5        30.05F
SOUTH BOSTON*  FAIR      92  63  37 NW9       30.03F
MARTINSVILLE   MOSUNNY   91  64  41 N5        30.10F
ROANOKE        MOSUNNY   89  61  38 N8        30.11F
BLACKSBURG     PTSUNNY   82  68  62 N3        30.19F
DUBLIN*        CLOUDY    83  66  56 CALM      30.18F
MARION*        MOSUNNY   82  63  53 NW3       30.22F
HILLSVILLE*    SUNNY     80  64  58 CALM      30.19F
RICHLANDS*     PTSUNNY   80  26  13 N5        30.21F
WISE*          PTSUNNY   81  59  47 N8        30.23F
ABINGDON*      SUNNY     84  63  49 CALM      30.17F
$$

MDZ021>025-VAZ099-100-021800-
SOUTHERN MARYLAND AND THE DELMARVA PENINSULA

CITY           SKY/WX    TMP DP  RH WIND       PRES   REMARKS
PATUXENT RIVER PTSUNNY   87  72  60 N6        30.00F
BAY BRIDGE APT   N/A     84  68  58 CALM      30.00F
LEONARDTOWN    NOT AVBL
DOVER          CLOUDY    85  73  68 E5        29.99F
GEORGETOWN     PTSUNNY   89  67  47 MISG      30.00F
EASTON         PTSUNNY   90  68  48 NW5       30.04F
CAMBRIDGE      MOSUNNY   86  68  54 CALM      30.00F
SALISBURY      PTSUNNY   88  69  53 N3        30.00F
OCEAN CITY     PTSUNNY   83  72  69 S6        30.00F
WALLOPS ISLAND PTSUNNY   88  75  65 E8        30.00F HX  97
ACCOMACK*      MOSUNNY   84  30  14 W8        30.01F
$$

NCZ012>017-030>032-021800-
NORTH CENTRAL AND EASTERN NORTH CAROLINA

CITY           SKY/WX    TMP DP  RH WIND       PRES   REMARKS
ROANOKE RAPIDS FAIR      90  70  51 SW7       30.03F HX  95
RALEIGH        MOSUNNY   91  69  48 SW5       30.05F HX  96
ELIZABETH CITY MOSUNNY   90  69  50 CALM      30.02F
AHOSKIE*       SUNNY     88  68  52 CALM      30.03F
EDENTON*       MOSUNNY   86  69  56 SW6       30.04F
CURRITUCK*     MOSUNNY   88  67  49 CALM      30.03F
KILL DEVIL HLS MOSUNNY   88  70  54 E3        30.03S
MANTEO         MOSUNNY   84  72  67 E3        30.04F
CAPE HATTERAS  MOSUNNY   85  72  65 VRB3      30.05F
TARBORO*       FAIR      91  68  46 CALM      30.04F HX  95
GOLDSBORO      PTSUNNY   90  69  50 CALM      30.04F
WASHINGTON     PTSUNNY   86  68  54 CALM      30.04F
GREENVILLE     PTSUNNY   90  68  48 CALM      30.06F
NEW BERN       MOSUNNY   88  67  49 CALM      30.06F
WILMINGTON     SUNNY     91  70  49 NW8       30.05F HX  96
$$

VAZ048-021800-
ELSEWHERE

CITY           SKY/WX    TMP DP  RH WIND       PRES   REMARKS
HARRISBURG PA  SUNNY     89  63  41 NW10      30.00F
BALTIMORE      PTSUNNY   88  65  46 N8        30.00F
ANNAPOLIS      CLOUDY    86  70  58 CALM      30.00F
ANDREWS AFB    CLOUDY    90  66  45 VRB5      30.00F HAZE
PHILADELPHIA   CLOUDY    88  64  44 W7        29.99F
HENDERSON NC   MOSUNNY   89  63  41 W6        30.05F
GREENSBORO     PTSUNNY   89  64  43 NW7       30.08F
ROCKY MOUNT    PTSUNNY   92  68  45 S3        30.04F HX  96
$$

VAZ100-021800-
MARINE

STATION/POSITION TIME  TEMP    WIND        PRES    WAVE   SWELL
                       AIR SEA DIR/SP/G            HT/PER HT/PER
                 (UTC) (F)     (DEG/KT/KT) (MB)    (FT/S) (FT/S)
BRANDYWINE LGT   1600   79 76     CALM     1016.8F
CAPE MAY NJ      1600   78 80  240/  7/  7 1016.2F
LEWES DE         1600   77 76   20/  3/  3 1016.4F
15NM E FENWICK I 1650   77 80  330/  4/  4 1016.2F   1/13   2/13
OCEAN-CITY-INLET 1600   80 77  190/  4/  5 1015.7F
GOOSES REEF MD   1700   81 81   30/  2/  4 1017.3F
COVE POINT MD    1600   79     360/  6/  7 1017.4F
SOLOMONS ISLAND  1600      80                N/A
BISHOPS HEAD MD  1600   82 81  210/  4/  5 1015.7F
PINEY POINT MD   1605          290/  4/  4   N/A
POTOMAC MD       1700   81 82   90/  2/  4 1015.1F   0
CAMBRIDGE MD     1600   82 80   60/  1/  2 1015.8F
LEWISETTA VA     1600   84 81  350/  1/  3 1016.3F
RAPPAHANNOCK LGT 1600          220/  2/  3 1017.3F
STINGRAY PT      1700   85 82  160/  4/  6 1016.6F   0
YORK RVR RNG VA  1600   86     250/  3/  4 1016.3F
YORKTOWN VA      1600   85 81  320/  3/  5 1016.3F
JAMESTOWN VA     1700   85 82  330/  2/  4   N/A
DOMINION TERM VA 1600   82     160/  1/  1 1016.8F
KIPTOPEKE VA     1600      80  240/  3/  3   N/A
CHES BAY BRIDGE  1600   82 79  260/  2/  3 1016.4F
CAPE HENRY VA    1600   82     320/  6/  6   N/A
CHESAPEAKE LGHT  1600   84     230/  3/  4 1017.8F
WILLOUBY STN VA  1600   82     250/  4/  5 1017.8F
CAPE HENRY BUOY  1628      81                N/A     2/10
1ST LANDING BUOY 1700      80              1016.0F   1
CAPE CHARLES BUO 1626      80                N/A     1/10   2/10
OFFSHORE WE BUOY 1611      81                N/A     2/10   2/10
64NM E OF VA BCH 1650   80 83  220/  4/  6 1016.6F   2/ 9   2/ 9
DUCK PIER NC     1600   80 78   30/  3/  4 1016.7F
44100 DUCK FRF   1624      81                N/A     1/10
44056 DUCK FRF   1611      82                N/A     1/13   2/13
OREGON INLET NC  1600   80 81   30/  5/  7 1017.4F
HATTERAS NC      1600   81 81  340/  4/  5 1017.6R
DIAMOND SHLS NC  1650   81 85  340/  4/  6 1017.6F   2/ 9   2/ 9
CAPE LOOKOUT NC  1700   81     130/  6/  6 1017.1F
$$



USA.gov is the U.S. government's official web portal to all federal, state and local government web resources and services.